Regional Weather Roundup
Issued by NWS

Home | Current Version | Previous Version | Text Only | Print | Product List | Glossary Off
Versions: 1 2 3 4 5 6 7 8 9 10 11 12 13 14 15 16 17 18 19 20 21 22 23 24 25 26 27 28 29 30 31 32 33 34 35 36 37 38 39 40 41 42 43 44 45 46 47 48 49 50

000
ASUS43 KIND 260209
RWRIN

WEATHER ROUNDUP FOR INDIANA
NATIONAL WEATHER SERVICE INDIANAPOLIS IN
1000 PM EDT MON MAY 25 2015

NOTE: "FAIR" INDICATES FEW OR NO CLOUDS BELOW 12,000 FEET WITH NO
SIGNIFICANT WEATHER AND/OR OBSTRUCTIONS TO VISIBILITY.

* - STATION DOES NOT REPORT WEATHER SUCH AS PRECIPITATION OR FOG.

+ - STATION NOT QUALITY CONTROLLED BY THE NATIONAL WEATHER SERVICE.
    USE DATA WITH CAUTION...ESPECIALLY DEWPOINT AND RELATIVE
    HUMIDITY OBSERVATIONS.

INZ001>003-010>013-019-020-260300-
NORTHWEST INDIANA

CITY           SKY/WX    TMP DP  RH WIND       PRES   REMARKS
GARY /AIRPORT/ PTCLDY    72  59  64 S8        29.92F
KNOX *+        CLOUDY    73  59  60 S13G18    29.96S
LA PORTE +     CLOUDY    75  56  51 S6        29.96S
MICHIGAN CITY+ CLOUDY    72  54  53 S3        29.95S
MONTICELLO +   CLOUDY    73  63  72 S6        29.98S
RENSSELAER +   CLOUDY    73  63  68 S13       29.97S
VALPARAISO     CLOUDY    74  56  53 S8        29.96R

$$

LMZ046-743>745-260300-
SOUTHERN LAKE MICHIGAN

STATION/POSITION TIME  TEMP    WIND        PRES    WAVE
                       AIR SEA DIR/SP/G            HT
                 (UTC) (F)     (DEG/KT/KT) (MB)    (FT)
BURNS HARBOR     0200   77     190/  7/ 10 1013.9S
MICHIGAN CITY    0200   77     160/  9/ 12   N/A
5NW MICH CITY    0200   64 52  170/  6/  8   N/A     1

$$

INZ004-005-014>016-021>024-260300-
NORTH CENTRAL INDIANA

CITY           SKY/WX    TMP DP  RH WIND       PRES   REMARKS
GOSHEN         MOCLDY    73  62  68 S12       29.99R
LOGANSPORT +   CLOUDY    70  59  68 S9        30.01S
PERU/GRISSOM   MOCLDY    71  64  77 S8        30.00R
ROCHESTER +    MOCLDY    75  63  64 SW6       30.01R
SOUTH BEND     MOCLDY    72  59  63 S8        29.97R
WARSAW +       PTCLDY    73  63  68 SW3       30.00R

$$

INZ006>009-017-018-025>027-260300-
NORTHEAST INDIANA

CITY           SKY/WX    TMP DP  RH WIND       PRES   REMARKS
ANGOLA *+      CLEAR     73  63  68 SW10      30.00R
AUBURN +       MOCLDY    73  59  60 SW8       30.02R
FORT WAYNE     MOCLDY    73  62  68 S10       30.03R
HUNTINGTON +   MOCLDY    72  62  71 S7        30.02R

$$

INZ028-029-035-036-043>045-051>053-260300-
WEST CENTRAL INDIANA

CITY           SKY/WX    TMP DP  RH WIND       PRES   REMARKS
CRAWFORDSVL +  CLOUDY    69  60  73 S9        30.02F
GREENCASTLE +  CLOUDY    68  61  77 S7        30.04S
LAFAYETTE      CLOUDY    72  63  73 S8        29.98F
TERRE HAUTE    CLOUDY    71  65  81 S9        30.02R

$$

INZ030>032-037>040-046>048-054>057-064-065-260300-
CENTRAL INDIANA

CITY           SKY/WX    TMP DP  RH WIND       PRES   REMARKS
CP ATTERBURY + PTCLDY    68  63  83 S6        30.07R
COLUMBUS       CLEAR     68  63  83 S10       30.06S
FISHERS *+     MOCLDY    68  64  88 S9        30.05R
FRANKFORT +    CLOUDY    71  64  78 SE5       30.03F
GREENWOOD *+   MOCLDY    70  61  73 S8        30.05F
INDIANAPOLIS   CLOUDY    70  63  78 S9        30.03S
-EAGLE CREEK   CLOUDY    71  64  78 S7        30.04R
KOKOMO *+      MOCLDY    72  63  73 S14       30.02R
MARION +       MOCLDY    71  61  70 S10       30.04R
MT COMFORT *+  MOCLDY    70  57  64 S6        30.06R
SHELBYVILLE    PTCLDY    72  64  76 S12       30.05R
ZIONSVILLE +   MOCLDY    73  62  70 S12       30.05R

$$

INZ033-034-041-042-049-050-058-059-260300-
EAST CENTRAL INDIANA

CITY           SKY/WX    TMP DP  RH WIND       PRES   REMARKS
MUNCIE         MOCLDY    72  62  71 S7        30.05R

$$

INZ060-061-067>069-081>083-085>088-260300-
SOUTHWEST INDIANA

CITY           SKY/WX    TMP DP  RH WIND       PRES   REMARKS
EVANSVILLE     MOCLDY    70  66  87 S6        30.07R
HUNTINGBURG *+ CLOUDY    68  63  83 S3        30.07S
WASHINGTON +   CLOUDY    69  65  86 S10       30.04S

$$

INZ062-063-066-070>080-084-089>092-260300-
SOUTH CENTRAL AND SOUTHEAST INDIANA

CITY           SKY/WX    TMP DP  RH WIND       PRES   REMARKS
BLOOMINGTON    CLOUDY    68  64  87 S6        30.05S
MADISON *+     CLOUDY    70  63  78 S6        30.10S
NORTH VERNON + CLOUDY    70  68  94 CALM      30.09R
SEYMOUR +      PTCLDY    70  64  83 S5        30.06S

$$



USA.gov is the U.S. government's official web portal to all federal, state and local government web resources and services.